[[{"header":{"parameterUnit":"m.s-1","parameterCategory":1,"la1":30.2992,"la2":30.254,"lo1":-89.0895,"lo2":-89.0443,"dy":0.0025,"dx":0.0025,"nx":19,"ny":19,"refTime":"2026-05-18T09:00:00:Z","depth":0,"parameterNumber":2,"parameterNumberName":"U-component_of_WINDS"},"data":[0,0,0,-3.8925,-3.8928,-3.9083,-3.9083,-3.9284,-3.9286,0,0,0,0,0,0,0,0,0,0,0,-3.8881,-3.8883,-3.8925,-3.8928,-3.9083,-3.9083,-3.9284,-3.9286,0,0,0,0,0,0,0,0,0,0,0,-3.888,-3.8882,-3.8884,-3.8929,-3.9082,-3.9083,-3.9283,-3.9166,0,0,0,0,0,0,0,0,0,0,-3.9015,-3.8977,-3.8882,-3.8884,-3.893,-3.9082,-3.9083,-3.916,-3.9173,-3.9216,0,-3.9254,0,-3.9273,-3.93,-3.93,0,0,0,-3.8927,-3.8966,-3.9006,-3.8884,-3.8931,-3.9082,-3.9013,-3.9167,-3.9182,-3.9233,-3.9257,-3.9265,-3.9277,-3.9301,-3.9302,-3.9554,-3.9555,0,0,-3.8918,-3.891,-3.8996,-3.9016,-3.8992,-3.9008,-3.9017,-3.9176,-3.9202,-3.9258,-3.9269,-3.928,-3.9302,-3.9304,-3.9552,-3.9554,0,0,0,-3.8895,-3.8904,-3.894,-3.9007,-3.9035,-3.9012,-3.9023,-3.9195,-3.9207,-3.9271,-3.9282,-3.9304,-3.9306,-3.9551,-3.9553,-3.9605,0,0,0,-3.889,-3.889,-3.8936,-3.8933,-3.9032,-3.9117,-3.9038,-3.9196,-3.9214,-3.9281,-3.9304,-3.9308,-3.955,-3.9552,-3.9601,-3.9631,0,0,0,-3.887,-3.8888,-3.8911,-3.8932,-3.8998,-3.9114,-3.9136,-3.92,-3.9221,-3.9301,-3.9309,-3.9549,-3.9552,-3.9597,-3.9625,-3.9694,0,0,0,-3.8847,-3.8956,-3.8912,-3.9038,-3.8997,-3.9146,-3.9135,-3.9247,-3.9321,-3.9305,-3.955,-3.9553,-3.9596,-3.9621,-3.9689,-3.9749,-3.9773,0,0,-3.898,-3.8972,-3.9047,-3.9012,-3.9167,-3.9123,-3.9286,-3.9362,-3.9378,-3.9494,-3.95,-3.9602,-3.9624,-3.9693,-3.9916,-3.9936,0,0,0,-3.9086,-3.9139,-3.9182,-3.9253,-3.9314,-3.9368,-3.9421,-3.9449,-3.9548,-3.9436,-3.9647,-3.966,-3.9701,-3.973,-3.9746,-3.9781,-3.9566,-3.9566,-3.9566,-3.9261,-3.9275,-3.9399,-3.9432,-3.9501,-3.9554,-3.961,-3.9658,-3.9652,-3.9702,-3.9736,-3.987,-3.9903,-3.9916,-3.9952,-3.977,-3.977,-3.977,-3.9771,-3.9455,-3.9532,-3.9522,-3.9639,-3.9654,-3.9752,-3.9808,-3.9801,-3.9895,-3.9845,-3.9882,-3.9825,-3.9936,-3.9968,-3.9775,-3.9774,-3.9773,-3.9773,-3.9773,-3.9569,-3.9608,-3.9641,-3.9744,-3.9823,-3.9853,-3.9943,-3.9954,-3.9964,-4.0001,-4.0037,-4.0036,-4.0035,-4.0017,-4.0018,-4.0018,-4.0019,-4.0019,-4.0019,-3.9673,-3.9709,-3.9784,-3.9858,-3.9905,-3.9967,-4.0023,-4.0069,-4.0123,-4.0123,-4.0124,-4.0112,-3.9945,-3.9902,-4.0027,-4.0025,-4.0024,-4.0024,-4.0023,-3.9862,-3.9821,-3.9936,-3.9983,-4.0071,-4.0147,-4.016,-4.0254,-4.0294,-4.0338,-4.032,-4.0195,-4.0188,-4.0175,-4.0139,-4.0317,-4.0317,-4.0317,-4.0317,-3.9957,-3.9954,-4.0074,-4.0148,-4.0222,-4.0245,-4.0375,-4.0419,-4.0459,-4.0484,-4.0461,-4.0415,-4.0401,-4.0402,-4.0384,-4.035,-4.0578,-4.0579,-4.0579,-4.0073,-4.0078,-4.0186,-4.0223,-4.0293,-4.0353,-4.0475,-4.056,-4.0597,-4.059,-4.0504,-4.0493,-4.0419,-4.0395,-4.0383,-4.0355,-4.0293,0,0]},{"header":{"parameterUnit":"m.s-1","parameterCategory":1,"la1":30.2992,"la2":30.254,"lo1":-89.0895,"lo2":-89.0443,"dy":0.0025,"dx":0.0025,"nx":19,"ny":19,"refTime":"2026-05-18T09:00:00:Z","depth":0,"parameterNumber":3,"parameterNumberName":"V-component_of_WINDS"},"data":[0,0,0,2.5341,2.5343,2.5416,2.5416,2.5511,2.5512,0,0,0,0,0,0,0,0,0,0,0,2.5321,2.5322,2.5341,2.5343,2.5416,2.5416,2.5511,2.5512,0,0,0,0,0,0,0,0,0,0,0,2.5321,2.5322,2.5323,2.5343,2.5416,2.5416,2.551,2.5455,0,0,0,0,0,0,0,0,0,0,2.5383,2.5366,2.5322,2.5323,2.5344,2.5416,2.5416,2.5452,2.5458,2.5478,0,2.5498,0,2.5506,2.5518,2.5518,0,0,0,2.5341,2.5361,2.538,2.5323,2.5345,2.5416,2.5383,2.5455,2.5462,2.5487,2.5499,2.5503,2.5508,2.5519,2.5519,2.5645,2.5646,0,0,2.5337,2.5335,2.5375,2.5385,2.5375,2.538,2.5385,2.546,2.5472,2.5499,2.5505,2.551,2.5519,2.552,2.5645,2.5645,0,0,0,2.5327,2.5332,2.5349,2.5381,2.5394,2.5383,2.5388,2.5469,2.5475,2.5506,2.5511,2.552,2.5521,2.5644,2.5645,2.5676,0,0,0,2.5324,2.5326,2.5347,2.5346,2.5393,2.5433,2.5396,2.547,2.5478,2.551,2.552,2.5522,2.5643,2.5644,2.5674,2.5691,0,0,0,2.5316,2.5325,2.5336,2.5346,2.5377,2.5432,2.5442,2.5472,2.5481,2.5519,2.5522,2.5643,2.5644,2.5672,2.5687,2.5724,0,0,0,2.5305,2.5361,2.5337,2.5401,2.5377,2.5451,2.5441,2.5496,2.5531,2.552,2.5643,2.5645,2.5671,2.5685,2.5722,2.5755,2.5769,0,0,2.5374,2.5369,2.5407,2.5388,2.5466,2.544,2.5522,2.5556,2.5561,2.5617,2.562,2.5675,2.5687,2.5724,2.5845,2.5856,0,0,0,2.5428,2.5456,2.5477,2.5512,2.5541,2.5567,2.5589,2.5602,2.565,2.559,2.5698,2.5705,2.5727,2.5743,2.5752,2.5771,2.5652,2.5652,2.5652,2.5521,2.5527,2.559,2.5605,2.5639,2.5663,2.569,2.5712,2.5705,2.5731,2.5747,2.5821,2.5839,2.5846,2.5866,2.5765,2.5765,2.5765,2.5766,2.5623,2.5663,2.5656,2.5715,2.5721,2.577,2.5795,2.579,2.5836,2.5808,2.5827,2.5796,2.5858,2.5875,2.5768,2.5768,2.5767,2.5767,2.5767,2.5684,2.5704,2.5721,2.5773,2.5812,2.5825,2.5871,2.5874,2.5876,2.5895,2.5913,2.5913,2.5913,2.5904,2.5904,2.5904,2.5905,2.5905,2.5905,2.5742,2.5759,2.5798,2.5835,2.5859,2.589,2.5916,2.5939,2.5965,2.5963,2.5963,2.5955,2.5863,2.584,2.5909,2.5908,2.5908,2.5907,2.5907,2.5843,2.5821,2.5881,2.5906,2.595,2.599,2.5993,2.604,2.6059,2.6082,2.6071,2.6002,2.5997,2.5989,2.597,2.6069,2.6069,2.6069,2.6069,2.5895,2.5893,2.5957,2.5995,2.6033,2.6043,2.6111,2.6132,2.615,2.6162,2.6148,2.6123,2.6116,2.6115,2.6105,2.6087,2.6213,2.6213,2.6214,2.5958,2.5961,2.6018,2.6037,2.6073,2.6103,2.6167,2.6211,2.6226,2.622,2.6172,2.6166,2.6126,2.6112,2.6104,2.6088,2.6056,0,0]}]]